GAOFEN 3 DEB, 42680

Orbit data source: Space-Track

GAOFEN 3 DEB, 42680 is space debris in SSO originally from a launch on Tue, 09 Aug 2016 UTC launched from the Taiyaun Space Center, China (TSC). Debris objects in space refer to the collection of defunct objects orbiting the Earth. Examples of debris include non-operational satellites, rocket bodies, and fragments generated from explosions, collisions, or faulty payload assembly.

Loading next visibility...
Identifier
42680, 2016-049E
Orbit
SSO
Country
Flag of CNCN / PRC
Related business
Manufacturer
Unknown
Mission
Spacecraft
Bus & Motor
Unknown
Mass
Unknown
Launch date (UTC)
2016-08-09 (9 years ago)
Launch vehicle
Unknown
Launch site
Taiyaun Space Center, China (TSC)
Object type
Payload
Rocket body
Debris
Shape & HBR
Unknown
Radar Cross Section
Small (<0.1 m²)

Expand to show TLE details & history
Last TLE update: 20 hours ago

TLE from 20 hours ago
0 GAOFEN 3 DEB
1 42680U 16049E   25249.26871360  .00003023  00000-0  78114-3 0  9997
2 42680  98.4366 259.1019 0014644 255.8488 104.1079 14.50613808475165
Epoch: 2025-09-06T06:26Z
TLE epoch observation values (Epoch: 2025-09-06T06:26:56.855Z)
Latitude
-0.00002°
Longitude
176.76003°
Altitude
729.159 km
Speed
7.489 km/s
True Right ascension
17h 16m 24s
True Declination
0° 00' 00"
Sunlit
Object was in daylight at epoch
Visualization orbit readout
Latitude
Unknown
Longitude
Unknown
Altitude
Unknown
Speed
Unknown
Apparent Right ascension
Unknown
Apparent Declination
Unknown
Sunlit
N/A
Visualization observer readout
Local Sidereal Time
18:03:48
Azimuth
Unknown
Elevation
Unknown
Doppler factor
Unknown
Orbital elements
Apogee altitude
731.145 km
Perigee altitude
710.354 km
Semi-major axis
7,098.886 km
Eccentricity
0.00146
Inclination
98.4366°
RAAN
259.1019°
Arg. of periapsis
255.8488°
True anomaly
104.27057°
Mean anomaly
104.1079°
Eccentric anomaly
104.18924°
Mean motion
3.62876 °/min
Orbital period
99.21 mins
BSTAR
0.00078114
Loading maneuver chart data...
Computing Atmospheric mass density...
Loading historical data...
Loading historical data...
Loading historical data...
Loading historical data...
Loading historical data...
Loading historical data...
Loading historical data...
Other satellites on launch #49 in the year 2016 (2016-08-09 UTC)

Documentation

Showing up to 5 results
|